Location: Darlington Observatory
(36.4817°N, 105.8156°W)
Time: 18:51:47
(UTC-06:00)

NOSS 3-3 (A) - Visible Passes

Search period start: 26 July 2017 00:00
Search period end: 05 August 2017 00:00
Orbit: 908 x 1305 km, 63.4° (Epoch: 18 July)

Date Brightness Start Highest point End Pass type
(mag) Time Alt. Az. Time Alt. Az. Time Alt. Az.
26 Jul 4.6 20:44:18 10° NNW 20:51:56 78° ENE 21:00:01 10° SE visible
26 Jul 6.3 22:36:51 10° WNW 22:42:19 21° WSW 22:47:56 10° SSW visible
27 Jul 5.8 21:51:07 10° NW 21:57:54 34° WSW 22:04:57 10° S visible
28 Jul 5.2 21:05:56 10° NW 21:13:21 54° WSW 21:21:09 10° S visible
29 Jul 6.7 22:14:47 10° WNW 22:18:49 15° WSW 22:22:56 10° SW visible
30 Jul 6.3 21:28:23 10° WNW 21:34:28 26° WSW 21:40:46 10° SSW visible
31 Jul 5.7 20:42:55 10° NW 20:50:00 41° WSW 20:57:25 10° S visible
02 Aug 6.8 21:05:58 10° WNW 21:11:00 19° WSW 21:16:11 10° SSW visible
